Weather History for KJST - October, 2012

Change the Weather History Date:

Tuesday, October 9, 2012

  Actual Average Record
Temperature  
Mean Temperature 46 °F 52 °F  
Max Temperature 57 °F 60 °F 90 °F (1939)
Min Temperature 37 °F 43 °F 29 °F (1940)
Degree Days  
Heating Degree Days 19 14  
Month to date heating degree days 112  
Since 1 July heating degree days 330  
Cooling Degree Days 0 0  
Month to date cooling degree days 0  
Year to date cooling degree days 382  
Moisture  
Dew Point 35 °F    
Average Humidity 70    
Maximum Humidity 89    
Minimum Humidity 49    
Precipitation  
Precipitation 0.00 in 0.10 in 1.62 in (1977)
Month to date precipitation 0.96  
Year to date precipitation 25.25  
Sea Level Pressure  
Sea Level Pressure 30.15 in    
Wind  
Wind Speed 3 mph (SSE)    
Max Wind Speed 10 mph    
Max Gust Speed -    
Visibility 10 miles    
Events      
T = Trace of Precipitation, MM = Missing Value Source: NWS Daily Summary

Daily Weather History Graph

Daily Weather History Graph

Search for Another Location

Airport or City:

Trip Planner

Search our weather history database for the weather conditions in past years. The results will help you decide how hot, cold, wet, or windy it might be!

Date:

Astronomy

Oct. 09, 2012 Rise Set
Actual Time 7:20 AM EDT 6:43 PM EDT
Civil Twilight 6:53 AM EDT 7:11 PM EDT
Nautical Twilight 6:21 AM EDT 7:42 PM EDT
Astronomical Twilight 5:49 AM EDT 8:14 PM EDT
Moon 12:54 AM EDT (10/9) 3:10 PM EDT (10/9)
Length of Visible Light 12h 18m
Length of Day
11h 23m
Last Quarter, 37% of the Moon is Illuminated
Oct 9
Last Quarter
Oct 15
New
Oct 21
First Quarter
Oct 29
Full
Nov 6
Last Quarter

Hourly Weather History & Observations

Time (EDT) Temp. Windchill Dew Point Humidity Pressure Visibility Wind Dir Wind Speed Gust Speed Precip Events Conditions
1:54 AM 37.9 °F - 33.1 °F 83% 30.21 in 10.0 mi Calm Calm - N/A   Overcast
2:54 AM 37.9 °F - 33.1 °F 83% 30.20 in 10.0 mi Calm Calm - N/A   Mostly Cloudy
3:54 AM 37.9 °F 34.4 °F 33.1 °F 83% 30.20 in 10.0 mi SSE 4.6 mph - N/A   Overcast
4:54 AM 37.9 °F - 33.1 °F 83% 30.20 in 10.0 mi Calm Calm - N/A   Overcast
5:54 AM 37.9 °F 34.4 °F 32.0 °F 79% 30.21 in 10.0 mi SSE 4.6 mph - N/A   Overcast
6:54 AM 37.9 °F 33.5 °F 30.9 °F 76% 30.22 in 10.0 mi South 5.8 mph - N/A   Overcast
7:54 AM 39.0 °F - 30.9 °F 73% 30.23 in 10.0 mi Calm Calm - N/A   Overcast
8:54 AM 39.9 °F 35.1 °F 32.0 °F 73% 30.22 in 10.0 mi SSE 6.9 mph - N/A   Overcast
9:54 AM 44.1 °F 41.5 °F 32.0 °F 63% 30.21 in 10.0 mi SE 4.6 mph - N/A   Scattered Clouds
10:54 AM 46.9 °F - 34.0 °F 61% 30.21 in 10.0 mi SSE 8.1 mph - N/A   Overcast
11:54 AM 48.9 °F - 33.1 °F 54% 30.19 in 10.0 mi Calm Calm - N/A   Partly Cloudy
12:54 PM 52.0 °F - 35.1 °F 53% 30.16 in 10.0 mi Calm Calm - N/A   Clear
1:54 PM 53.1 °F - 35.1 °F 50% 30.13 in 10.0 mi Calm Calm - N/A   Clear
2:54 PM 55.9 °F - 37.0 °F 49% 30.10 in 10.0 mi SSE 8.1 mph - N/A   Clear
3:54 PM 55.9 °F - 37.0 °F 49% 30.09 in 10.0 mi SSE 5.8 mph - N/A   Mostly Cloudy
4:54 PM 55.0 °F - 37.9 °F 53% 30.08 in 10.0 mi SE 6.9 mph - N/A   Clear
5:54 PM 53.1 °F - 37.9 °F 57% 30.09 in 10.0 mi ESE 5.8 mph - N/A   Partly Cloudy
6:54 PM 48.9 °F - 39.0 °F 69% 30.09 in 10.0 mi SSE 8.1 mph - N/A   Clear
7:54 PM 46.9 °F - 39.0 °F 74% 30.09 in 10.0 mi SSE 10.4 mph - N/A   Clear
8:54 PM 45.0 °F 39.7 °F 39.0 °F 80% 30.09 in 10.0 mi SSE 10.4 mph - N/A   Clear
9:54 PM 45.0 °F 41.8 °F 39.0 °F 80% 30.08 in 10.0 mi South 5.8 mph - N/A   Clear
10:54 PM 42.1 °F 39.2 °F 37.9 °F 85% 30.07 in 10.0 mi SSE 4.6 mph - N/A   Clear
11:54 PM 42.1 °F 37.7 °F 39.0 °F 89% 30.05 in 10.0 mi South 6.9 mph - N/A   Clear